Location: Franzen
(48.6167°N, 15.3833°E)
Time: 12:23:35
(UTC+00:00)

FALCON 9 DEB - Pass Details

Date: 22 April 2021
Orbit: 369 x 384 km, 53.0° (Epoch: 16 May)

Event Time Altitude Azimuth Distance (km) Brightness Sun altitude
Rises 19:41:14 0° 233° (SW) 2,209 6.9 -15.2°
Reaches altitude 10° 19:43:16 10° 230° (SW) 1,363 5.7 -15.4°
Maximum altitude 19:46:16 60° 149° (SSE) 430 2.7 -15.8°
Enters shadow 19:47:12 37° 87° (E) 589 3.4 -15.9°
